owner,sensor,date,latitude,longitude,vertical_datum,wind_speed,wind_to_direction,wind_speed_of_gust,qcFlag 
COMPS,ioos:station:USF.COMPS:SHP:1,2017-05-01T00:00:00Z,30.0600,-84.2910,10.0,6.25,204.76,7.35,'1111122,1111122,1111122' 
COMPS,ioos:station:USF.COMPS:SHP:1,2017-05-01T00:06:00Z,30.0600,-84.2910,10.0,6.06,200.95,7.44,'1111122,1111122,1111122' 
COMPS,ioos:station:USF.COMPS:SHP:1,2017-05-01T00:12:00Z,30.0600,-84.2910,10.0,6.09,199.55,7.44,'1111122,1111122,1111122' 
COMPS,ioos:station:USF.COMPS:SHP:1,2017-05-01T00:18:00Z,30.0600,-84.2910,10.0,6.26,199.32,7.35,'1111122,1111122,1111122' 
COMPS,ioos:station:USF.COMPS:SHP:1,2017-05-01T00:24:00Z,30.0600,-84.2910,10.0,5.44,197.28,7.05,'1111122,1111122,1111122' 
COMPS,ioos:station:USF.COMPS:SHP:1,2017-05-01T00:30:00Z,30.0600,-84.2910,10.0,5.84,199.93,7.25,'1111122,1111122,1111122' 
COMPS,ioos:station:USF.COMPS:SHP:1,2017-05-01T00:36:00Z,30.0600,-84.2910,10.0,6.35,200.59,7.05,'1111122,1111122,1111122' 
COMPS,ioos:station:USF.COMPS:SHP:1,2017-05-01T00:42:00Z,30.0600,-84.2910,10.0,5.91,200.72,7.54,'1111122,1111122,1111122' 
COMPS,ioos:station:USF.COMPS:SHP:1,2017-05-01T00:48:00Z,30.0600,-84.2910,10.0,4.82,196.66,6.56,'1111122,1111122,1111122' 
COMPS,ioos:station:USF.COMPS:SHP:1,2017-05-01T00:54:00Z,30.0600,-84.2910,10.0,4.93,198.19,5.87,'1111122,1111122,1111122' 
COMPS,ioos:station:USF.COMPS:SHP:1,2017-05-01T01:00:00Z,30.0600,-84.2910,10.0,4.93,202.58,5.97,'1111122,1111122,1111122' 
COMPS,ioos:station:USF.COMPS:SHP:1,2017-05-01T01:06:00Z,30.0600,-84.2910,10.0,4.98,203.26,6.46,'1111122,1111122,1111122' 
COMPS,ioos:station:USF.COMPS:SHP:1,2017-05-01T01:12:00Z,30.0600,-84.2910,10.0,4.64,193.79,6.27,'1111122,1111122,1111122' 
COMPS,ioos:station:USF.COMPS:SHP:1,2017-05-01T01:18:00Z,30.0600,-84.2910,10.0,4.7,195.15,6.07,'1111122,1111122,1111122' 
COMPS,ioos:station:USF.COMPS:SHP:1,2017-05-01T01:24:00Z,30.0600,-84.2910,10.0,4.72,196.22,6.07,'1111122,1111122,1111122' 
COMPS,ioos:station:USF.COMPS:SHP:1,2017-05-01T01:30:00Z,30.0600,-84.2910,10.0,3.99,194.82,5.48,'1111122,1111122,1111122' 
COMPS,ioos:station:USF.COMPS:SHP:1,2017-05-01T01:36:00Z,30.0600,-84.2910,10.0,5.07,195.08,6.85,'1111122,1111122,1111122' 
COMPS,ioos:station:USF.COMPS:SHP:1,2017-05-01T01:42:00Z,30.0600,-84.2910,10.0,4.66,195.4,6.27,'1111122,1111122,1111122' 
COMPS,ioos:station:USF.COMPS:SHP:1,2017-05-01T01:48:00Z,30.0600,-84.2910,10.0,4.27,199.66,5.78,'1111122,1111122,1111122' 
COMPS,ioos:station:USF.COMPS:SHP:1,2017-05-01T01:54:00Z,30.0600,-84.2910,10.0,4.99,199.84,6.07,'1111122,1111122,1111122' 
COMPS,ioos:station:USF.COMPS:SHP:1,2017-05-01T02:00:00Z,30.0600,-84.2910,10.0,4.74,197.9,5.78,'1111122,1111122,1111122' 
COMPS,ioos:station:USF.COMPS:SHP:1,2017-05-01T02:06:00Z,30.0600,-84.2910,10.0,3.97,197.63,4.99,'1111122,1111122,1111122' 
COMPS,ioos:station:USF.COMPS:SHP:1,2017-05-01T02:12:00Z,30.0600,-84.2910,10.0,3.51,193.53,5.48,'1111122,1111122,1111122' 
COMPS,ioos:station:USF.COMPS:SHP:1,2017-05-01T02:18:00Z,30.0600,-84.2910,10.0,3.77,196.52,5.19,'1111122,1111122,1111122' 
COMPS,ioos:station:USF.COMPS:SHP:1,2017-05-01T02:24:00Z,30.0600,-84.2910,10.0,4.31,200.56,5.29,'1111122,1111122,1111122' 
COMPS,ioos:station:USF.COMPS:SHP:1,2017-05-01T02:30:00Z,30.0600,-84.2910,10.0,4.18,204.39,5.58,'1111122,1111122,1111122' 
COMPS,ioos:station:USF.COMPS:SHP:1,2017-05-01T02:36:00Z,30.0600,-84.2910,10.0,4.23,218.63,5.09,'1111122,1111122,1111122' 
COMPS,ioos:station:USF.COMPS:SHP:1,2017-05-01T02:42:00Z,30.0600,-84.2910,10.0,4.57,223.76,5.29,'1111122,1111122,1111122' 
COMPS,ioos:station:USF.COMPS:SHP:1,2017-05-01T02:48:00Z,30.0600,-84.2910,10.0,4.77,214.74,5.48,'1111122,1111122,1111122' 
COMPS,ioos:station:USF.COMPS:SHP:1,2017-05-01T02:54:00Z,30.0600,-84.2910,10.0,4.79,217.15,5.48,'1111122,1111122,1111122' 
COMPS,ioos:station:USF.COMPS:SHP:1,2017-05-01T03:00:00Z,30.0600,-84.2910,10.0,4.88,212.15,5.87,'1111122,1111122,1111122' 
COMPS,ioos:station:USF.COMPS:SHP:1,2017-05-01T03:06:00Z,30.0600,-84.2910,10.0,5.38,215.4,6.27,'1111122,1111122,1111122' 
COMPS,ioos:station:USF.COMPS:SHP:1,2017-05-01T03:12:00Z,30.0600,-84.2910,10.0,4.7,205.44,5.87,'1111122,1111122,1111122' 
COMPS,ioos:station:USF.COMPS:SHP:1,2017-05-01T03:18:00Z,30.0600,-84.2910,10.0,5.13,203.29,6.56,'1111122,1111122,1111122' 
COMPS,ioos:station:USF.COMPS:SHP:1,2017-05-01T03:24:00Z,30.0600,-84.2910,10.0,5.29,198.94,7.05,'1111122,1111122,1111122' 
COMPS,ioos:station:USF.COMPS:SHP:1,2017-05-01T03:30:00Z,30.0600,-84.2910,10.0,5.48,198.17,6.85,'1111122,1111122,1111122' 
COMPS,ioos:station:USF.COMPS:SHP:1,2017-05-01T03:36:00Z,30.0600,-84.2910,10.0,5.4,198.66,7.35,'1111122,1111122,1111122' 
COMPS,ioos:station:USF.COMPS:SHP:1,2017-05-01T03:42:00Z,30.0600,-84.2910,10.0,4.76,191.28,6.95,'1111122,1111122,1111122' 
COMPS,ioos:station:USF.COMPS:SHP:1,2017-05-01T03:48:00Z,30.0600,-84.2910,10.0,5.43,193.44,8.13,'1111122,1111122,1111122' 
COMPS,ioos:station:USF.COMPS:SHP:1,2017-05-01T03:54:00Z,30.0600,-84.2910,10.0,5.54,196.27,7.15,'1111122,1111122,1111122' 
COMPS,ioos:station:USF.COMPS:SHP:1,2017-05-01T04:00:00Z,30.0600,-84.2910,10.0,5.55,193.88,6.85,'1111122,1111122,1111122' 
COMPS,ioos:station:USF.COMPS:SHP:1,2017-05-01T04:06:00Z,30.0600,-84.2910,10.0,4.87,194.34,6.66,'1111122,1111122,1111122' 
COMPS,ioos:station:USF.COMPS:SHP:1,2017-05-01T04:12:00Z,30.0600,-84.2910,10.0,5.72,195.92,7.44,'1111122,1111122,1111122' 
COMPS,ioos:station:USF.COMPS:SHP:1,2017-05-01T04:18:00Z,30.0600,-84.2910,10.0,5.16,194.24,7.05,'1111122,1111122,1111122' 
COMPS,ioos:station:USF.COMPS:SHP:1,2017-05-01T04:24:00Z,30.0600,-84.2910,10.0,5.86,197.71,7.64,'1111122,1111122,1111122' 
COMPS,ioos:station:USF.COMPS:SHP:1,2017-05-01T04:30:00Z,30.0600,-84.2910,10.0,5.8,195.89,7.93,'1111122,1111122,1111122' 
COMPS,ioos:station:USF.COMPS:SHP:1,2017-05-01T04:36:00Z,30.0600,-84.2910,10.0,5.78,198.43,7.54,'1111122,1111122,1111122' 
COMPS,ioos:station:USF.COMPS:SHP:1,2017-05-01T04:42:00Z,30.0600,-84.2910,10.0,5.16,189.21,7.35,'1111122,1111122,1111122' 
COMPS,ioos:station:USF.COMPS:SHP:1,2017-05-01T04:48:00Z,30.0600,-84.2910,10.0,5.24,188.47,7.05,'1111122,1111122,1111122' 
COMPS,ioos:station:USF.COMPS:SHP:1,2017-05-01T04:54:00Z,30.0600,-84.2910,10.0,5.16,178.82,6.46,'1111122,1111122,1111122' 
COMPS,ioos:station:USF.COMPS:SHP:1,2017-05-01T05:00:00Z,30.0600,-84.2910,10.0,4.75,178.0,6.66,'1111122,1111122,1111122' 
COMPS,ioos:station:USF.COMPS:SHP:1,2017-05-01T05:06:00Z,30.0600,-84.2910,10.0,5.55,188.19,7.35,'1111122,1111122,1111122' 
COMPS,ioos:station:USF.COMPS:SHP:1,2017-05-01T05:12:00Z,30.0600,-84.2910,10.0,5.61,181.31,7.25,'1111122,1111122,1111122' 
COMPS,ioos:station:USF.COMPS:SHP:1,2017-05-01T05:18:00Z,30.0600,-84.2910,10.0,4.96,183.56,7.35,'1111122,1111122,1111122' 
COMPS,ioos:station:USF.COMPS:SHP:1,2017-05-01T05:24:00Z,30.0600,-84.2910,10.0,5.79,181.63,7.54,'1111122,1111122,1111122' 
COMPS,ioos:station:USF.COMPS:SHP:1,2017-05-01T05:30:00Z,30.0600,-84.2910,10.0,5.56,182.77,7.44,'1111122,1111122,1111122' 
COMPS,ioos:station:USF.COMPS:SHP:1,2017-05-01T05:36:00Z,30.0600,-84.2910,10.0,6.33,178.53,8.03,'1111122,1111122,1111122' 
COMPS,ioos:station:USF.COMPS:SHP:1,2017-05-01T05:42:00Z,30.0600,-84.2910,10.0,7.73,172.0,9.3,'1111122,1111122,1111122' 
COMPS,ioos:station:USF.COMPS:SHP:1,2017-05-01T05:48:00Z,30.0600,-84.2910,10.0,7.94,169.1,9.01,'1111122,1111122,1111122' 
COMPS,ioos:station:USF.COMPS:SHP:1,2017-05-01T05:54:00Z,30.0600,-84.2910,10.0,7.77,165.79,9.01,'1111122,1111122,1111122' 
COMPS,ioos:station:USF.COMPS:SHP:1,2017-05-01T06:00:00Z,30.0600,-84.2910,10.0,8.0,168.17,10.29,'1111122,1111122,1111122' 
COMPS,ioos:station:USF.COMPS:SHP:1,2017-05-01T06:06:00Z,30.0600,-84.2910,10.0,8.38,170.13,10.19,'1111122,1111122,1111122' 
COMPS,ioos:station:USF.COMPS:SHP:1,2017-05-01T06:12:00Z,30.0600,-84.2910,10.0,7.86,169.91,9.4,'1111122,1111122,1111122' 
COMPS,ioos:station:USF.COMPS:SHP:1,2017-05-01T06:18:00Z,30.0600,-84.2910,10.0,7.77,171.52,9.21,'1111122,1111122,1111122' 
COMPS,ioos:station:USF.COMPS:SHP:1,2017-05-01T06:24:00Z,30.0600,-84.2910,10.0,7.24,171.53,9.21,'1111122,1111122,1111122' 
COMPS,ioos:station:USF.COMPS:SHP:1,2017-05-01T06:30:00Z,30.0600,-84.2910,10.0,7.7,170.54,9.5,'1111122,1111122,1111122' 
COMPS,ioos:station:USF.COMPS:SHP:1,2017-05-01T06:36:00Z,30.0600,-84.2910,10.0,7.08,172.83,9.4,'1111122,1111122,1111122' 
COMPS,ioos:station:USF.COMPS:SHP:1,2017-05-01T06:42:00Z,30.0600,-84.2910,10.0,6.45,174.8,7.93,'1111122,1111122,1111122' 
COMPS,ioos:station:USF.COMPS:SHP:1,2017-05-01T06:48:00Z,30.0600,-84.2910,10.0,6.94,171.09,8.42,'1111122,1111122,1111122' 
COMPS,ioos:station:USF.COMPS:SHP:1,2017-05-01T06:54:00Z,30.0600,-84.2910,10.0,6.99,170.3,8.33,'1111122,1111122,1111122' 
COMPS,ioos:station:USF.COMPS:SHP:1,2017-05-01T07:00:00Z,30.0600,-84.2910,10.0,7.09,171.28,8.72,'1111122,1111122,1111122' 
COMPS,ioos:station:USF.COMPS:SHP:1,2017-05-01T07:06:00Z,30.0600,-84.2910,10.0,6.77,176.93,8.42,'1111122,1111122,1111122' 
COMPS,ioos:station:USF.COMPS:SHP:1,2017-05-01T07:12:00Z,30.0600,-84.2910,10.0,7.99,171.23,8.91,'1111122,1111122,1111122' 
COMPS,ioos:station:USF.COMPS:SHP:1,2017-05-01T07:18:00Z,30.0600,-84.2910,10.0,7.24,168.98,8.33,'1111122,1111122,1111122' 
COMPS,ioos:station:USF.COMPS:SHP:1,2017-05-01T07:24:00Z,30.0600,-84.2910,10.0,6.88,171.2,8.62,'1111122,1111122,1111122' 
COMPS,ioos:station:USF.COMPS:SHP:1,2017-05-01T07:30:00Z,30.0600,-84.2910,10.0,6.57,173.33,9.5,'1111122,1111122,1111122' 
COMPS,ioos:station:USF.COMPS:SHP:1,2017-05-01T07:36:00Z,30.0600,-84.2910,10.0,6.45,173.96,8.03,'1111122,1111122,1111122' 
COMPS,ioos:station:USF.COMPS:SHP:1,2017-05-01T07:42:00Z,30.0600,-84.2910,10.0,7.02,170.25,8.42,'1111122,1111122,1111122' 
COMPS,ioos:station:USF.COMPS:SHP:1,2017-05-01T07:48:00Z,30.0600,-84.2910,10.0,7.7,168.9,8.91,'1111122,1111122,1111122' 
COMPS,ioos:station:USF.COMPS:SHP:1,2017-05-01T07:54:00Z,30.0600,-84.2910,10.0,7.4,174.03,8.91,'1111122,1111122,1111122' 
COMPS,ioos:station:USF.COMPS:SHP:1,2017-05-01T08:00:00Z,30.0600,-84.2910,10.0,7.83,170.25,9.6,'1111122,1111122,1111122' 
COMPS,ioos:station:USF.COMPS:SHP:1,2017-05-01T08:06:00Z,30.0600,-84.2910,10.0,6.7,174.07,8.23,'1111122,1111122,1111122' 
COMPS,ioos:station:USF.COMPS:SHP:1,2017-05-01T08:12:00Z,30.0600,-84.2910,10.0,6.17,178.06,7.74,'1111122,1111122,1111122' 
COMPS,ioos:station:USF.COMPS:SHP:1,2017-05-01T08:18:00Z,30.0600,-84.2910,10.0,7.94,173.45,9.7,'1111122,1111122,1111122' 
COMPS,ioos:station:USF.COMPS:SHP:1,2017-05-01T08:24:00Z,30.0600,-84.2910,10.0,7.17,175.49,9.6,'1111122,1111122,1111122' 
COMPS,ioos:station:USF.COMPS:SHP:1,2017-05-01T08:30:00Z,30.0600,-84.2910,10.0,6.6,178.88,8.72,'1111122,1111122,1111122' 
COMPS,ioos:station:USF.COMPS:SHP:1,2017-05-01T08:36:00Z,30.0600,-84.2910,10.0,6.46,179.02,8.72,'1111122,1111122,1111122' 
COMPS,ioos:station:USF.COMPS:SHP:1,2017-05-01T08:42:00Z,30.0600,-84.2910,10.0,6.75,177.08,9.6,'1111122,1111122,1111122' 
COMPS,ioos:station:USF.COMPS:SHP:1,2017-05-01T08:48:00Z,30.0600,-84.2910,10.0,6.59,182.02,8.52,'1111122,1111122,1111122' 
COMPS,ioos:station:USF.COMPS:SHP:1,2017-05-01T08:54:00Z,30.0600,-84.2910,10.0,6.28,185.08,7.64,'1111122,1111122,1111122' 
COMPS,ioos:station:USF.COMPS:SHP:1,2017-05-01T09:00:00Z,30.0600,-84.2910,10.0,6.57,190.33,9.4,'1111122,1111122,1111122' 
COMPS,ioos:station:USF.COMPS:SHP:1,2017-05-01T09:06:00Z,30.0600,-84.2910,10.0,6.73,187.01,7.93,'1111122,1111122,1111122' 
COMPS,ioos:station:USF.COMPS:SHP:1,2017-05-01T09:12:00Z,30.0600,-84.2910,10.0,6.5,188.58,8.33,'1111122,1111122,1111122' 
COMPS,ioos:station:USF.COMPS:SHP:1,2017-05-01T09:18:00Z,30.0600,-84.2910,10.0,6.76,185.15,8.42,'1111122,1111122,1111122' 
COMPS,ioos:station:USF.COMPS:SHP:1,2017-05-01T09:24:00Z,30.0600,-84.2910,10.0,6.02,184.36,8.91,'1111122,1111122,1111122' 
COMPS,ioos:station:USF.COMPS:SHP:1,2017-05-01T09:30:00Z,30.0600,-84.2910,10.0,6.92,177.56,9.3,'1111122,1111122,1111122' 
COMPS,ioos:station:USF.COMPS:SHP:1,2017-05-01T09:36:00Z,30.0600,-84.2910,10.0,8.8,170.29,10.78,'1111122,1111122,1111122' 
COMPS,ioos:station:USF.COMPS:SHP:1,2017-05-01T09:42:00Z,30.0600,-84.2910,10.0,9.26,173.44,10.68,'1111122,1111122,1111122' 
COMPS,ioos:station:USF.COMPS:SHP:1,2017-05-01T09:48:00Z,30.0600,-84.2910,10.0,7.61,183.53,10.19,'1111122,1111122,1111122' 
COMPS,ioos:station:USF.COMPS:SHP:1,2017-05-01T09:54:00Z,30.0600,-84.2910,10.0,7.78,181.17,11.27,'1111122,1111122,1111122' 
COMPS,ioos:station:USF.COMPS:SHP:1,2017-05-01T10:00:00Z,30.0600,-84.2910,10.0,7.76,178.66,10.58,'1111122,1111122,1111122' 
COMPS,ioos:station:USF.COMPS:SHP:1,2017-05-01T10:06:00Z,30.0600,-84.2910,10.0,8.69,176.6,11.27,'1111122,1111122,1111122' 
COMPS,ioos:station:USF.COMPS:SHP:1,2017-05-01T10:12:00Z,30.0600,-84.2910,10.0,8.52,177.6,11.36,'1111122,1111122,1111122' 
COMPS,ioos:station:USF.COMPS:SHP:1,2017-05-01T10:18:00Z,30.0600,-84.2910,10.0,7.61,177.89,10.19,'1111122,1111122,1111122' 
COMPS,ioos:station:USF.COMPS:SHP:1,2017-05-01T10:24:00Z,30.0600,-84.2910,10.0,8.02,180.18,10.68,'1111122,1111122,1111122' 
COMPS,ioos:station:USF.COMPS:SHP:1,2017-05-01T10:30:00Z,30.0600,-84.2910,10.0,8.28,179.7,9.89,'1111122,1111122,1111122' 
COMPS,ioos:station:USF.COMPS:SHP:1,2017-05-01T10:36:00Z,30.0600,-84.2910,10.0,7.65,182.35,10.38,'1111122,1111122,1111122' 
COMPS,ioos:station:USF.COMPS:SHP:1,2017-05-01T10:42:00Z,30.0600,-84.2910,10.0,7.35,178.11,10.48,'1111122,1111122,1111122' 
COMPS,ioos:station:USF.COMPS:SHP:1,2017-05-01T10:48:00Z,30.0600,-84.2910,10.0,8.17,175.73,10.58,'1111122,1111122,1111122' 
COMPS,ioos:station:USF.COMPS:SHP:1,2017-05-01T10:54:00Z,30.0600,-84.2910,10.0,7.7,178.83,10.19,'1111122,1111122,1111122' 
COMPS,ioos:station:USF.COMPS:SHP:1,2017-05-01T11:00:00Z,30.0600,-84.2910,10.0,7.04,185.76,9.4,'1111122,1111122,1111122' 
COMPS,ioos:station:USF.COMPS:SHP:1,2017-05-01T11:06:00Z,30.0600,-84.2910,10.0,6.96,184.98,9.7,'1111122,1111122,1111122' 
COMPS,ioos:station:USF.COMPS:SHP:1,2017-05-01T11:12:00Z,30.0600,-84.2910,10.0,7.84,182.03,10.58,'1111122,1111122,1111122' 
COMPS,ioos:station:USF.COMPS:SHP:1,2017-05-01T11:18:00Z,30.0600,-84.2910,10.0,9.22,176.46,11.56,'1111122,1111122,1111122' 
COMPS,ioos:station:USF.COMPS:SHP:1,2017-05-01T11:24:00Z,30.0600,-84.2910,10.0,8.85,176.79,11.85,'1111122,1111122,1111122' 
COMPS,ioos:station:USF.COMPS:SHP:1,2017-05-01T11:30:00Z,30.0600,-84.2910,10.0,9.06,177.08,13.03,'1111122,1111122,1111122' 
COMPS,ioos:station:USF.COMPS:SHP:1,2017-05-01T11:36:00Z,30.0600,-84.2910,10.0,9.33,175.33,13.91,'1111122,1111122,1111122' 
COMPS,ioos:station:USF.COMPS:SHP:1,2017-05-01T11:42:00Z,30.0600,-84.2910,10.0,11.51,170.16,13.52,'1111122,1111122,1111122' 
COMPS,ioos:station:USF.COMPS:SHP:1,2017-05-01T11:48:00Z,30.0600,-84.2910,10.0,11.57,171.72,13.72,'1111122,1111122,1111122' 
COMPS,ioos:station:USF.COMPS:SHP:1,2017-05-01T11:54:00Z,30.0600,-84.2910,10.0,11.08,174.21,14.21,'1111122,1111122,1111122' 
COMPS,ioos:station:USF.COMPS:SHP:1,2017-05-01T12:00:00Z,30.0600,-84.2910,10.0,12.0,170.08,14.79,'1111122,1111122,1111122' 
COMPS,ioos:station:USF.COMPS:SHP:1,2017-05-01T12:06:00Z,30.0600,-84.2910,10.0,13.52,166.59,16.07,'1111122,1111122,1111122' 
COMPS,ioos:station:USF.COMPS:SHP:1,2017-05-01T12:12:00Z,30.0600,-84.2910,10.0,13.09,170.47,16.07,'1111122,1111122,1111122' 
COMPS,ioos:station:USF.COMPS:SHP:1,2017-05-01T12:18:00Z,30.0600,-84.2910,10.0,13.18,168.44,15.97,'1111122,1111122,1111122' 
COMPS,ioos:station:USF.COMPS:SHP:1,2017-05-01T12:24:00Z,30.0600,-84.2910,10.0,13.06,171.01,16.75,'1111122,1111122,1111122' 
COMPS,ioos:station:USF.COMPS:SHP:1,2017-05-01T12:30:00Z,30.0600,-84.2910,10.0,13.38,166.17,16.95,'1111122,1111122,1111122' 
COMPS,ioos:station:USF.COMPS:SHP:1,2017-05-01T12:36:00Z,30.0600,-84.2910,10.0,13.92,168.67,15.77,'1111122,1111122,1111122' 
COMPS,ioos:station:USF.COMPS:SHP:1,2017-05-01T12:42:00Z,30.0600,-84.2910,10.0,12.59,172.31,16.56,'1111122,1111122,1111122' 
COMPS,ioos:station:USF.COMPS:SHP:1,2017-05-01T12:48:00Z,30.0600,-84.2910,10.0,13.25,171.86,16.95,'1111122,1111122,1111122' 
COMPS,ioos:station:USF.COMPS:SHP:1,2017-05-01T12:54:00Z,30.0600,-84.2910,10.0,12.98,172.45,16.17,'1111122,1111122,1111122' 
COMPS,ioos:station:USF.COMPS:SHP:1,2017-05-01T13:00:00Z,30.0600,-84.2910,10.0,11.3,177.94,14.11,'1111122,1111122,1111122' 
COMPS,ioos:station:USF.COMPS:SHP:1,2017-05-01T13:06:00Z,30.0600,-84.2910,10.0,10.54,178.8,14.5,'1111122,1111122,1111122' 
COMPS,ioos:station:USF.COMPS:SHP:1,2017-05-01T13:12:00Z,30.0600,-84.2910,10.0,11.19,177.6,15.38,'1111122,1111122,1111122' 
COMPS,ioos:station:USF.COMPS:SHP:1,2017-05-01T13:18:00Z,30.0600,-84.2910,10.0,12.48,173.46,15.87,'1111122,1111122,1111122' 
COMPS,ioos:station:USF.COMPS:SHP:1,2017-05-01T13:24:00Z,30.0600,-84.2910,10.0,10.55,180.42,15.38,'1111122,1111122,1111122' 
COMPS,ioos:station:USF.COMPS:SHP:1,2017-05-01T13:30:00Z,30.0600,-84.2910,10.0,11.55,176.84,14.89,'1111122,1111122,1111122' 
COMPS,ioos:station:USF.COMPS:SHP:1,2017-05-01T13:36:00Z,30.0600,-84.2910,10.0,10.49,176.68,14.7,'1111122,1111122,1111122' 
COMPS,ioos:station:USF.COMPS:SHP:1,2017-05-01T13:42:00Z,30.0600,-84.2910,10.0,11.08,176.63,15.38,'1111122,1111122,1111122' 
COMPS,ioos:station:USF.COMPS:SHP:1,2017-05-01T13:48:00Z,30.0600,-84.2910,10.0,8.96,179.84,12.34,'1111122,1111122,1111122' 
COMPS,ioos:station:USF.COMPS:SHP:1,2017-05-01T13:54:00Z,30.0600,-84.2910,10.0,9.53,179.03,12.25,'1111122,1111122,1111122' 
COMPS,ioos:station:USF.COMPS:SHP:1,2017-05-01T14:00:00Z,30.0600,-84.2910,10.0,9.66,178.2,15.38,'1111122,1111122,1111122' 
COMPS,ioos:station:USF.COMPS:SHP:1,2017-05-01T14:06:00Z,30.0600,-84.2910,10.0,10.91,175.57,14.3,'1111122,1111122,1111122' 
COMPS,ioos:station:USF.COMPS:SHP:1,2017-05-01T14:12:00Z,30.0600,-84.2910,10.0,10.87,177.86,14.99,'1111122,1111122,1111122' 
COMPS,ioos:station:USF.COMPS:SHP:1,2017-05-01T14:18:00Z,30.0600,-84.2910,10.0,8.81,179.13,14.21,'1111122,1111122,1111122' 
COMPS,ioos:station:USF.COMPS:SHP:1,2017-05-01T14:24:00Z,30.0600,-84.2910,10.0,9.5,182.5,12.25,'1111122,1111122,1111122' 
COMPS,ioos:station:USF.COMPS:SHP:1,2017-05-01T14:30:00Z,30.0600,-84.2910,10.0,8.92,183.1,11.85,'1111122,1111122,1111122' 
COMPS,ioos:station:USF.COMPS:SHP:1,2017-05-01T14:36:00Z,30.0600,-84.2910,10.0,9.66,181.67,13.03,'1111122,1111122,1111122' 
COMPS,ioos:station:USF.COMPS:SHP:1,2017-05-01T14:42:00Z,30.0600,-84.2910,10.0,9.43,181.9,14.11,'1111122,1111122,1111122' 
COMPS,ioos:station:USF.COMPS:SHP:1,2017-05-01T14:48:00Z,30.0600,-84.2910,10.0,9.52,176.66,14.01,'1111122,1111122,1111122' 
COMPS,ioos:station:USF.COMPS:SHP:1,2017-05-01T14:54:00Z,30.0600,-84.2910,10.0,9.92,180.1,13.42,'1111122,1111122,1111122' 
COMPS,ioos:station:USF.COMPS:SHP:1,2017-05-01T15:00:00Z,30.0600,-84.2910,10.0,10.17,176.52,13.13,'1111122,1111122,1111122' 
COMPS,ioos:station:USF.COMPS:SHP:1,2017-05-01T15:06:00Z,30.0600,-84.2910,10.0,8.79,184.32,13.03,'1111122,1111122,1111122' 
COMPS,ioos:station:USF.COMPS:SHP:1,2017-05-01T15:12:00Z,30.0600,-84.2910,10.0,9.42,176.46,12.64,'1111122,1111122,1111122' 
COMPS,ioos:station:USF.COMPS:SHP:1,2017-05-01T15:18:00Z,30.0600,-84.2910,10.0,10.18,179.19,13.32,'1111122,1111122,1111122' 
COMPS,ioos:station:USF.COMPS:SHP:1,2017-05-01T15:24:00Z,30.0600,-84.2910,10.0,10.46,175.02,13.32,'1111122,1111122,1111122' 
COMPS,ioos:station:USF.COMPS:SHP:1,2017-05-01T15:30:00Z,30.0600,-84.2910,10.0,10.35,174.01,13.52,'1111122,1111122,1111122' 
COMPS,ioos:station:USF.COMPS:SHP:1,2017-05-01T15:36:00Z,30.0600,-84.2910,10.0,11.01,171.9,13.23,'1111122,1111122,1111122' 
COMPS,ioos:station:USF.COMPS:SHP:1,2017-05-01T15:42:00Z,30.0600,-84.2910,10.0,10.44,172.26,13.72,'1111122,1111122,1111122' 
COMPS,ioos:station:USF.COMPS:SHP:1,2017-05-01T15:48:00Z,30.0600,-84.2910,10.0,10.62,173.35,13.23,'1111122,1111122,1111122' 
COMPS,ioos:station:USF.COMPS:SHP:1,2017-05-01T15:54:00Z,30.0600,-84.2910,10.0,10.04,173.33,12.83,'1111122,1111122,1111122' 
COMPS,ioos:station:USF.COMPS:SHP:1,2017-05-01T16:00:00Z,30.0600,-84.2910,10.0,10.06,169.61,13.23,'1111122,1111122,1111122' 
COMPS,ioos:station:USF.COMPS:SHP:1,2017-05-01T16:06:00Z,30.0600,-84.2910,10.0,9.87,176.21,12.83,'1111122,1111122,1111122' 
COMPS,ioos:station:USF.COMPS:SHP:1,2017-05-01T16:12:00Z,30.0600,-84.2910,10.0,10.65,172.95,13.72,'1111122,1111122,1111122' 
COMPS,ioos:station:USF.COMPS:SHP:1,2017-05-01T16:18:00Z,30.0600,-84.2910,10.0,10.82,175.98,13.03,'1111122,1111122,1111122' 
COMPS,ioos:station:USF.COMPS:SHP:1,2017-05-01T16:24:00Z,30.0600,-84.2910,10.0,11.44,172.02,13.91,'1111122,1111122,1111122' 
COMPS,ioos:station:USF.COMPS:SHP:1,2017-05-01T16:30:00Z,30.0600,-84.2910,10.0,11.58,169.12,14.7,'1111122,1111122,1111122' 
COMPS,ioos:station:USF.COMPS:SHP:1,2017-05-01T16:36:00Z,30.0600,-84.2910,10.0,11.44,169.13,13.91,'1111122,1111122,1111122' 
COMPS,ioos:station:USF.COMPS:SHP:1,2017-05-01T16:42:00Z,30.0600,-84.2910,10.0,10.99,170.84,13.81,'1111122,1111122,1111122' 
COMPS,ioos:station:USF.COMPS:SHP:1,2017-05-01T16:48:00Z,30.0600,-84.2910,10.0,9.77,174.39,13.62,'1111122,1111122,1111122' 
COMPS,ioos:station:USF.COMPS:SHP:1,2017-05-01T16:54:00Z,30.0600,-84.2910,10.0,8.55,179.79,11.76,'1111122,1111122,1111122' 
COMPS,ioos:station:USF.COMPS:SHP:1,2017-05-01T17:00:00Z,30.0600,-84.2910,10.0,9.99,175.21,13.32,'1111122,1111122,1111122' 
COMPS,ioos:station:USF.COMPS:SHP:1,2017-05-01T17:06:00Z,30.0600,-84.2910,10.0,8.8,184.58,14.5,'1111122,1111122,1111122' 
COMPS,ioos:station:USF.COMPS:SHP:1,2017-05-01T17:12:00Z,30.0600,-84.2910,10.0,9.07,179.93,12.83,'1111122,1111122,1111122' 
COMPS,ioos:station:USF.COMPS:SHP:1,2017-05-01T17:18:00Z,30.0600,-84.2910,10.0,8.13,179.96,11.76,'1111122,1111122,1111122' 
COMPS,ioos:station:USF.COMPS:SHP:1,2017-05-01T17:24:00Z,30.0600,-84.2910,10.0,8.62,179.78,11.76,'1111122,1111122,1111122' 
COMPS,ioos:station:USF.COMPS:SHP:1,2017-05-01T17:30:00Z,30.0600,-84.2910,10.0,10.85,172.56,13.13,'1111122,1111122,1111122' 
COMPS,ioos:station:USF.COMPS:SHP:1,2017-05-01T17:36:00Z,30.0600,-84.2910,10.0,8.65,176.89,12.34,'1111122,1111122,1111122' 
COMPS,ioos:station:USF.COMPS:SHP:1,2017-05-01T17:42:00Z,30.0600,-84.2910,10.0,9.7,178.46,13.03,'1111122,1111122,1111122' 
COMPS,ioos:station:USF.COMPS:SHP:1,2017-05-01T17:48:00Z,30.0600,-84.2910,10.0,9.06,175.06,12.44,'1111122,1111122,1111122' 
COMPS,ioos:station:USF.COMPS:SHP:1,2017-05-01T17:54:00Z,30.0600,-84.2910,10.0,9.11,176.25,12.15,'1111122,1111122,1111122' 
COMPS,ioos:station:USF.COMPS:SHP:1,2017-05-01T18:00:00Z,30.0600,-84.2910,10.0,9.02,177.11,11.95,'1111122,1111122,1111122' 
COMPS,ioos:station:USF.COMPS:SHP:1,2017-05-01T18:06:00Z,30.0600,-84.2910,10.0,8.71,177.68,12.15,'1111122,1111122,1111122' 
COMPS,ioos:station:USF.COMPS:SHP:1,2017-05-01T18:12:00Z,30.0600,-84.2910,10.0,8.71,179.28,12.15,'1111122,1111122,1111122' 
COMPS,ioos:station:USF.COMPS:SHP:1,2017-05-01T18:18:00Z,30.0600,-84.2910,10.0,7.76,183.07,11.46,'1111122,1111122,1111122' 
COMPS,ioos:station:USF.COMPS:SHP:1,2017-05-01T18:24:00Z,30.0600,-84.2910,10.0,9.11,178.34,12.74,'1111122,1111122,1111122' 
COMPS,ioos:station:USF.COMPS:SHP:1,2017-05-01T18:30:00Z,30.0600,-84.2910,10.0,8.16,183.73,11.27,'1111122,1111122,1111122' 
COMPS,ioos:station:USF.COMPS:SHP:1,2017-05-01T18:36:00Z,30.0600,-84.2910,10.0,8.14,184.13,10.68,'1111122,1111122,1111122' 
COMPS,ioos:station:USF.COMPS:SHP:1,2017-05-01T18:42:00Z,30.0600,-84.2910,10.0,8.44,189.62,12.15,'1111122,1111122,1111122' 
COMPS,ioos:station:USF.COMPS:SHP:1,2017-05-01T18:48:00Z,30.0600,-84.2910,10.0,7.98,188.81,11.56,'1111122,1111122,1111122' 
COMPS,ioos:station:USF.COMPS:SHP:1,2017-05-01T18:54:00Z,30.0600,-84.2910,10.0,7.1,182.7,9.6,'1111122,1111122,1111122' 
COMPS,ioos:station:USF.COMPS:SHP:1,2017-05-01T19:00:00Z,30.0600,-84.2910,10.0,7.86,190.27,11.36,'1111122,1111122,1111122' 
COMPS,ioos:station:USF.COMPS:SHP:1,2017-05-01T19:06:00Z,30.0600,-84.2910,10.0,8.26,185.6,11.66,'1111122,1111122,1111122' 
COMPS,ioos:station:USF.COMPS:SHP:1,2017-05-01T19:12:00Z,30.0600,-84.2910,10.0,7.61,177.59,10.68,'1111122,1111122,1111122' 
COMPS,ioos:station:USF.COMPS:SHP:1,2017-05-01T19:18:00Z,30.0600,-84.2910,10.0,8.04,179.96,13.72,'1111122,1111122,1111122' 
COMPS,ioos:station:USF.COMPS:SHP:1,2017-05-01T19:24:00Z,30.0600,-84.2910,10.0,8.93,197.73,11.66,'1111122,1111122,1111122' 